Total_Precipitation_Accumulation
0.14 0.11 0.11 0.12 0.09 0.07 0.04 0.04 0.11 0.22 0.18 0.04 0.02 0.09 0.28 0.35 0.39 0.47 0.32 0.14 0.19 0.28 0.11 0.09 0.22 0.26 0.18 0.16 0.21 0.25 0.37 0.35 0.33 0.13 0.09 0.04 0.01 0.00 0.01 0.01 0.02 0.10 0.16 0.11 0.11 0.15 0.07 0.00 0.00 0.01 0.00 0.00 0.00 0.00
0.09 0.10 0.04 0.00 0.00 0.00 0.00 0.01 0.05 0.13 0.49 0.33 0.10 0.10 0.36 0.45 0.36 0.48 0.32 0.19 0.16 0.25 0.17 0.09 0.09 0.17 0.19 0.17 0.21 0.21 0.20 0.17 0.21 0.08 0.03 0.04 0.03 0.02 0.02 0.01 0.00 0.02 0.03 0.07 0.15 0.16 0.04 0.00 0.00 0.00 0.00 0.00 0.00 0.00
0.04 0.02 0.01 0.00 0.00 0.00 0.00 0.00 0.01 0.06 0.24 0.47 0.30 0.22 0.49 0.51 0.37 0.42 0.26 0.17 0.26 0.38 0.24 0.15 0.20 0.16 0.18 0.27 0.21 0.33 0.20 0.10 0.15 0.11 0.13 0.15 0.11 0.05 0.05 0.03 0.04 0.01 0.01 0.02 0.04 0.00 0.00 0.00 0.00 0.00 0.00 0.00 0.00 0.00
0.00 0.01 0.00 0.00 0.00 0.00 0.00 0.00 0.00 0.03 0.16 0.43 0.63 0.52 0.51 0.38 0.42 0.41 0.32 0.21 0.26 0.39 0.32 0.20 0.30 0.20 0.17 0.47 0.17 0.18 0.13 0.05 0.06 0.11 0.11 0.09 0.12 0.12 0.14 0.11 0.11 0.11 0.12 0.16 0.14 0.05 0.03 0.01 0.01 0.03 0.04 0.02 0.00 0.00
0.00 0.00 0.00 0.00 0.00 0.00 0.00 0.00 0.00 0.01 0.10 0.41 0.70 0.64 0.51 0.49 0.46 0.49 0.36 0.30 0.22 0.33 0.39 0.26 0.27 0.14 0.03 0.46 0.24 0.11 0.07 0.09 0.06 0.06 0.05 0.03 0.04 0.07 0.07 0.07 0.02 0.01 0.04 0.07 0.08 0.12 0.09 0.11 0.07 0.07 0.07 0.02 0.01 0.00
0.00 0.00 0.00 0.00 0.00 0.00 0.00 0.00 0.00 0.01 0.11 0.41 0.49 0.41 0.56 0.64 0.52 0.51 0.47 0.31 0.26 0.19 0.21 0.17 0.13 0.05 0.01 0.13 0.11 0.10 0.08 0.07 0.05 0.04 0.04 0.05 0.06 0.12 0.11 0.06 0.03 0.02 0.02 0.04 0.06 0.05 0.03 0.02 0.01 0.01 0.03 0.03 0.02 0.00
0.00 0.00 0.00 0.00 0.00 0.00 0.00 0.00 0.00 0.04 0.11 0.17 0.12 0.08 0.19 0.15 0.16 0.14 0.14 0.14 0.17 0.25 0.20 0.08 0.07 0.04 0.03 0.04 0.05 0.05 0.07 0.09 0.10 0.06 0.03 0.03 0.07 0.10 0.07 0.04 0.03 0.01 0.01 0.01 0.00 0.00 0.00 0.00 0.00 0.00 0.00 0.00 0.00 0.00
0.01 0.00 0.00 0.00 0.00 0.00 0.00 0.00 0.01 0.04 0.05 0.01 0.03 0.02 0.03 0.04 0.05 0.04 0.03 0.02 0.02 0.03 0.01 0.02 0.07 0.08 0.05 0.07 0.10 0.10 0.10 0.09 0.10 0.07 0.04 0.04 0.09 0.16 0.14 0.03 0.01 0.01 0.00 0.01 0.01 0.00 0.00 0.00 0.00 0.00 0.00 0.00 0.00 0.00
0.10 0.04 0.01 0.00 0.00 0.00 0.00 0.00 0.01 0.03 0.02 0.03 0.05 0.05 0.07 0.06 0.03 0.04 0.01 0.10 0.10 0.04 0.03 0.02 0.05 0.23 0.19 0.11 0.08 0.07 0.05 0.12 0.10 0.06 0.04 0.08 0.09 0.12 0.03 0.04 0.04 0.02 0.02 0.02 0.01 0.02 0.01 0.00 0.00 0.00 0.00 0.00 0.00 0.00
0.04 0.04 0.01 0.01 0.01 0.01 0.00 0.00 0.02 0.02 0.04 0.05 0.04 0.05 0.04 0.02 0.03 0.01 0.01 0.06 0.16 0.07 0.04 0.07 0.06 0.21 0.31 0.20 0.11 0.09 0.09 0.12 0.11 0.05 0.04 0.10 0.07 0.02 0.01 0.03 0.05 0.03 0.03 0.02 0.01 0.01 0.00 0.00 0.00 0.00 0.00 0.00 0.00 0.00
0.01 0.01 0.01 0.01 0.01 0.01 0.00 0.00 0.04 0.05 0.09 0.07 0.09 0.10 0.10 0.02 0.05 0.05 0.08 0.04 0.06 0.14 0.06 0.03 0.04 0.27 0.23 0.26 0.13 0.10 0.14 0.10 0.13 0.08 0.04 0.06 0.03 0.04 0.01 0.01 0.02 0.01 0.02 0.01 0.00 0.00 0.00 0.00 0.00 0.00 0.00 0.00 0.00 0.00
0.02 0.02 0.02 0.01 0.01 0.01 0.00 0.03 0.15 0.07 0.08 0.08 0.13 0.11 0.05 0.05 0.13 0.10 0.16 0.10 0.08 0.17 0.06 0.03 0.06 0.25 0.19 0.17 0.18 0.10 0.14 0.16 0.16 0.14 0.07 0.09 0.05 0.02 0.02 0.00 0.01 0.00 0.00 0.00 0.00 0.00 0.00 0.00 0.00 0.00 0.00 0.00 0.00 0.00
0.02 0.02 0.02 0.01 0.00 0.00 0.00 0.04 0.05 0.08 0.06 0.13 0.21 0.09 0.14 0.08 0.19 0.06 0.03 0.03 0.13 0.16 0.06 0.07 0.15 0.15 0.21 0.26 0.27 0.19 0.04 0.15 0.16 0.41 0.28 0.07 0.03 0.00 0.00 0.00 0.00 0.00 0.00 0.00 0.00 0.00 0.00 0.00 0.00 0.00 0.00 0.00 0.00 0.00
0.02 0.02 0.02 0.01 0.01 0.01 0.03 0.06 0.10 0.08 0.19 0.29 0.21 0.15 0.19 0.15 0.05 0.07 0.14 0.36 0.18 0.36 0.31 0.24 0.16 0.28 0.26 0.09 0.12 0.15 0.04 0.02 0.03 0.02 0.04 0.01 0.00 0.00 0.00 0.00 0.00 0.00 0.00 0.00 0.00 0.00 0.00 0.00 0.00 0.00 0.00 0.00 0.00 0.00
0.03 0.05 0.06 0.05 0.05 0.04 0.03 0.08 0.10 0.25 0.34 0.36 0.26 0.24 0.04 0.15 0.06 0.03 0.02 0.01 0.00 0.15 0.41 0.20 0.12 0.17 0.08 0.01 0.03 0.01 0.00 0.00 0.00 0.01 0.02 0.00 0.00 0.00 0.00 0.00 0.00 0.00 0.00 0.00 0.00 0.00 0.00 0.00 0.00 0.01 0.01 0.01 0.01 0.02
0.02 0.03 0.04 0.04 0.04 0.03 0.03 0.08 0.22 0.47 0.41 0.22 0.08 0.03 0.02 0.06 0.05 0.01 0.01 0.00 0.00 0.15 0.17 0.04 0.01 0.01 0.00 0.00 0.00 0.00 0.00 0.00 0.01 0.01 0.01 0.00 0.00 0.00 0.00 0.00 0.00 0.00 0.00 0.00 0.00 0.00 0.00 0.00 0.00 0.01 0.01 0.01 0.01 0.02
0.01 0.01 0.00 0.00 0.00 0.00 0.05 0.28 0.39 0.24 0.07 0.01 0.03 0.01 0.01 0.06 0.04 0.01 0.00 0.01 0.01 0.08 0.04 0.00 0.00 0.00 0.00 0.00 0.00 0.00 0.00 0.01 0.01 0.02 0.01 0.01 0.00 0.00 0.00 0.00 0.00 0.00 0.00 0.00 0.00 0.00 0.00 0.00 0.00 0.01 0.01 0.01 0.01 0.02
0.01 0.00 0.00 0.00 0.01 0.01 0.06 0.10 0.12 0.04 0.01 0.01 0.03 0.03 0.01 0.01 0.01 0.01 0.00 0.01 0.07 0.08 0.02 0.01 0.00 0.00 0.00 0.00 0.01 0.00 0.01 0.01 0.01 0.01 0.01 0.01 0.00 0.00 0.00 0.00 0.00 0.00 0.00 0.00 0.00 0.00 0.00 0.00 0.00 0.00 0.00 0.00 0.01 0.02
0.00 0.00 0.00 0.00 0.01 0.09 0.15 0.04 0.01 0.01 0.00 0.00 0.01 0.01 0.01 0.01 0.00 0.00 0.00 0.01 0.04 0.02 0.01 0.00 0.00 0.00 0.00 0.00 0.01 0.01 0.00 0.01 0.01 0.01 0.02 0.01 0.01 0.01 0.01 0.01 0.00 0.00 0.00 0.00 0.00 0.00 0.00 0.00 0.00 0.00 0.00 0.00 0.01 0.01
0.00 0.00 0.00 0.00 0.00 0.02 0.01 0.00 0.00 0.01 0.00 0.01 0.01 0.01 0.01 0.01 0.00 0.00 0.00 0.01 0.01 0.00 0.00 0.00 0.00 0.00 0.00 0.00 0.00 0.01 0.01 0.01 0.00 0.01 0.02 0.03 0.03 0.01 0.01 0.01 0.00 0.00 0.00 0.00 0.00 0.00 0.00 0.00 0.00 0.00 0.00 0.00 0.01 0.01
0.00 0.00 0.00 0.00 0.01 0.01 0.01 0.00 0.00 0.00 0.00 0.00 0.00 0.00 0.01 0.00 0.01 0.01 0.01 0.00 0.01 0.01 0.01 0.00 0.00 0.00 0.00 0.00 0.00 0.00 0.00 0.00 0.00 0.00 0.01 0.01 0.02 0.01 0.01 0.01 0.00 0.00 0.00 0.00 0.01 0.01 0.00 0.00 0.00 0.00 0.00 0.01 0.02 0.01
0.00 0.00 0.00 0.00 0.00 0.01 0.00 0.00 0.00 0.00 0.00 0.00 0.00 0.00 0.01 0.01 0.01 0.01 0.00 0.00 0.01 0.00 0.00 0.00 0.00 0.00 0.00 0.00 0.00 0.00 0.00 0.00 0.00 0.00 0.00 0.00 0.00 0.02 0.02 0.01 0.01 0.01 0.01 0.00 0.00 0.00 0.00 0.01 0.00 0.01 0.02 0.03 0.04 0.03
0.00 0.00 0.00 0.00 0.00 0.00 0.00 0.00 0.00 0.00 0.00 0.00 0.00 0.00 0.01 0.01 0.00 0.00 0.00 0.00 0.00 0.00 0.00 0.00 0.00 0.00 0.00 0.00 0.00 0.00 0.00 0.00 0.00 0.00 0.00 0.00 0.00 0.00 0.00 0.00 0.00 0.01 0.01 0.00 0.00 0.00 0.01 0.01 0.01 0.02 0.03 0.05 0.07 0.07
0.00 0.00 0.00 0.00 0.00 0.00 0.00 0.00 0.00 0.00 0.00 0.00 0.00 0.00 0.00 0.00 0.00 0.00 0.00 0.00 0.00 0.00 0.00 0.00 0.00 0.00 0.00 0.00 0.00 0.00 0.00 0.00 0.00 0.00 0.00 0.00 0.00 0.00 0.00 0.00 0.00 0.00 0.00 0.00 0.00 0.01 0.01 0.01 0.02 0.03 0.04 0.05 0.06 0.05
0.00 0.00 0.00 0.00 0.00 0.00 0.00 0.00 0.00 0.00 0.00 0.00 0.00 0.00 0.00 0.00 0.01 0.00 0.00 0.00 0.00 0.00 0.00 0.00 0.00 0.01 0.01 0.01 0.01 0.00 0.00 0.00 0.00 0.00 0.00 0.00 0.00 0.00 0.00 0.00 0.00 0.00 0.00 0.01 0.01 0.01 0.02 0.02 0.02 0.03 0.04 0.04 0.04 0.04
0.00 0.00 0.00 0.00 0.00 0.00 0.00 0.01 0.01 0.00 0.01 0.01 0.01 0.01 0.00 0.01 0.00 0.00 0.00 0.01 0.01 0.01 0.01 0.01 0.01 0.01 0.01 0.01 0.01 0.00 0.00 0.00 0.00 0.00 0.00 0.00 0.00 0.00 0.00 0.00 0.00 0.00 0.00 0.00 0.01 0.01 0.01 0.01 0.02 0.03 0.03 0.04 0.04 0.04
0.00 0.00 0.00 0.00 0.00 0.00 0.00 0.01 0.01 0.01 0.01 0.01 0.02 0.01 0.01 0.01 0.00 0.00 0.00 0.00 0.01 0.01 0.01 0.00 0.01 0.01 0.01 0.01 0.00 0.00 0.00 0.00 0.00 0.00 0.00 0.00 0.00 0.00 0.00 0.00 0.00 0.00 0.00 0.00 0.00 0.00 0.01 0.01 0.01 0.02 0.03 0.04 0.04 0.03
0.00 0.00 0.00 0.00 0.00 0.00 0.01 0.01 0.01 0.01 0.01 0.01 0.01 0.01 0.01 0.00 0.00 0.00 0.00 0.00 0.00 0.00 0.00 0.00 0.00 0.00 0.00 0.01 0.00 0.00 0.00 0.00 0.00 0.00 0.01 0.01 0.00 0.00 0.00 0.00 0.00 0.00 0.00 0.00 0.00 0.00 0.00 0.00 0.01 0.01 0.02 0.03 0.04 0.04
0.00 0.00 0.00 0.00 0.00 0.00 0.00 0.00 0.01 0.00 0.00 0.00 0.01 0.01 0.01 0.00 0.00 0.00 0.00 0.00 0.00 0.00 0.00 0.00 0.00 0.00 0.00 0.01 0.01 0.00 0.00 0.00 0.01 0.02 0.02 0.02 0.01 0.01 0.00 0.00 0.00 0.00 0.00 0.00 0.00 0.00 0.00 0.00 0.01 0.01 0.02 0.02 0.03 0.05
0.01 0.00 0.00 0.00 0.00 0.00 0.01 0.00 0.01 0.01 0.00 0.00 0.00 0.00 0.00 0.00 0.01 0.00 0.00 0.00 0.00 0.00 0.01 0.01 0.01 0.01 0.01 0.01 0.02 0.03 0.02 0.01 0.01 0.01 0.01 0.01 0.01 0.00 0.00 0.00 0.00 0.00 0.00 0.00 0.00 0.01 0.01 0.01 0.01 0.02 0.03 0.03 0.04 0.05
0.01 0.01 0.01 0.01 0.01 0.01 0.01 0.00 0.00 0.00 0.01 0.00 0.01 0.01 0.01 0.02 0.01 0.00 0.00 0.00 0.00 0.01 0.01 0.01 0.02 0.01 0.02 0.01 0.02 0.02 0.02 0.01 0.01 0.01 0.00 0.00 0.00 0.01 0.00 0.00 0.00 0.00 0.01 0.01 0.01 0.01 0.01 0.01 0.01 0.02 0.02 0.01 0.01 0.01
0.01 0.01 0.01 0.01 0.02 0.02 0.00 0.01 0.01 0.01 0.01 0.01 0.01 0.01 0.02 0.03 0.02 0.01 0.00 0.00 0.00 0.00 0.01 0.01 0.01 0.01 0.01 0.01 0.00 0.00 0.00 0.00 0.00 0.00 0.00 0.00 0.00 0.00 0.00 0.00 0.01 0.01 0.01 0.01 0.01 0.01 0.01 0.01 0.01 0.01 0.01 0.01 0.01 0.02
0.01 0.01 0.02 0.01 0.01 0.01 0.02 0.01 0.01 0.00 0.00 0.00 0.00 0.01 0.02 0.04 0.03 0.01 0.00 0.00 0.00 0.00 0.00 0.00 0.01 0.00 0.00 0.00 0.00 0.00 0.00 0.00 0.00 0.00 0.00 0.00 0.00 0.01 0.01 0.01 0.01 0.02 0.02 0.02 0.02 0.02 0.01 0.01 0.02 0.02 0.02 0.02 0.02 0.03